Retour au catalogue

STARLINK-38238

ActifCommunicationsSSO
NORAD 100223·PAYLOAD·🇺🇸 United States

Lancé Aug 4, 2026 depuis Vandenberg Space Force Base

Loading…

Prochains Passages (prochaines 24 heures)

TLE

FraisSource: Space-Track

Époque: Sep 14, 2026, 22:47 UTC

1 A0223U 26177L   26257.94984596  .00027984  00000-0  51424-3 0  9995
2 A0223  97.2837 308.7301 0001422  93.7137 266.4277 15.49196442  7574

Suivez STARLINK-38238 en temps réel avec AllMySat

Download on the App Store